DW5595 Weather Reports


time (UTC)temp
C
wind
direction
speed
KPH
gust
KPH
rain 1hr
cm
rain 24hr
cm
rain mn
cm
humidity
%
barometer
mb
20260905053012 23 121 0.0 0.0 0.00 0.00 0.00 95 1015.5
20260905051523 23 34 0.0 0.0 0.00 0.00 0.00 94 1015.7
20260905050013 23 34 0.0 0.0 0.00 0.00 0.00 94 1015.6
20260905044514 23 34 0.0 0.0 0.00 0.00 0.00 94 1015.5
20260905043014 23 84 0.0 0.0 0.00 0.00 0.00 94 1015.4
20260905041516 23 38 0.0 0.0 0.00 0.00 0.00 93 1015.3
20260905040014 23 40 0.0 0.0 0.00 0.00 0.00 94 1015.2
20260905034518 23 40 0.0 0.0 0.00 0.00 0.00 93 1015.2
20260905033020 23 25 0.0 0.0 0.00 0.00 0.00 93 1014.9
20260905031518 24 145 0.0 0.0 0.00 0.00 0.00 93 1014.8
20260905030024 24 145 0.0 0.0 0.00 0.00 0.00 92 1014.9
20260905024525 24 145 0.0 0.0 0.00 0.00 0.00 92 1015.1
20260905023019 24 145 1.6 3.2 0.00 0.00 0.00 92 1015.2
20260905021514 25 96 0.0 0.0 0.00 0.00 0.00 91 1015.4
20260905020017 25 96 0.0 0.0 0.00 0.00 0.00 91 1015.3
20260905014516 25 96 0.0 0.0 0.00 0.00 0.00 90 1015.3
20260905013017 25 96 0.0 0.0 0.00 0.00 0.00 89 1015.4
20260905011517 26 96 0.0 3.2 0.00 0.00 0.00 89 1015.4
20260905010016 26 96 0.0 0.0 0.00 0.00 0.00 87 1015.6
20260905004516 26 96 0.0 1.6 0.00 0.00 0.00 87 1015.2
20260905003028 27 360 0.0 4.8 0.00 0.00 0.00 85 1015.1
20260905001521 27 172 0.0 0.0 0.00 0.00 0.00 81 1015.1
20260905000032 28 172 0.0 0.0 0.00 0.00 0.00 80 1015.1
20260904234524 29 172 0.0 0.0 0.00 0.00 0.00 75 1015.0
20260904233025 30 172 0.0 0.0 0.00 0.00 0.00 72 1014.7
20260904231526 30 172 0.0 0.0 0.00 0.00 0.00 68 1014.5
20260904230047 31 172 0.0 0.0 0.00 0.00 0.00 64 1014.4
20260904224524 32 150 0.0 3.2 0.00 0.00 0.00 61 1014.4
20260904223023 32 160 0.0 0.0 0.00 0.00 0.00 58 1014.6
20260904221521 33 147 1.6 3.2 0.00 0.00 0.00 56 1014.5
20260904220029 33 170 0.0 8.0 0.00 0.00 0.00 53 1014.7
20260904214514 33 157 1.6 6.4 0.00 0.00 0.00 57 1014.6
20260904213023 33 152 1.6 4.8 0.00 0.00 0.00 55 1014.8
20260904211510 33 188 1.6 11.3 0.00 0.00 0.00 56 1014.6
20260904210033 33 169 3.2 6.4 0.00 0.00 0.00 53 1014.6
20260904204525 33 138 1.6 6.4 0.00 0.00 0.00 53 1014.8
20260904203023 33 168 3.2 6.4 0.00 0.00 0.00 53 1014.8
20260904201516 33 196 0.0 3.2 0.00 0.00 0.00 54 1014.8
20260904200038 33 182 3.2 6.4 0.00 0.00 0.00 52 1015.1
20260904194511 34 131 3.2 11.3 0.00 0.00 0.00 51 1015.2
20260904193027 34 159 1.6 11.3 0.00 0.00 0.00 49 1015.5
20260904191507 34 202 0.0 11.3 0.00 0.00 0.00 53 1015.9
20260904190029 34 146 4.8 9.7 0.00 0.00 0.00 58 1016.1
20260904184542 34 352 0.0 6.4 0.00 0.00 0.00 53 1016.3
20260904183019 33 125 0.0 4.8 0.00 0.00 0.00 57 1016.4
20260904181525 33 13 1.6 8.0 0.00 0.00 0.00 56 1016.5
20260904180019 33 117 0.0 8.0 0.00 0.00 0.00 55 1016.7
20260904174557 33 42 0.0 6.4 0.00 0.00 0.00 55 1016.8
20260904173032 33 360 3.2 8.0 0.00 0.00 0.00 58 1017.0
20260904171530 33 32 0.0 4.8 0.00 0.00 0.00 58 1017.2
20260904170043 33 309 0.0 3.2 0.00 0.00 0.00 56 1017.3
20260904164524 33 13 3.2 4.8 0.00 0.00 0.00 60 1017.4
20260904163018 32 21 1.6 4.8 0.00 0.00 0.00 59 1017.6
20260904161519 32 147 4.8 9.7 0.00 0.00 0.00 64 1017.7
20260904160032 31 28 0.0 3.2 0.00 0.00 0.00 64 1017.9
20260904154531 31 10 1.6 4.8 0.00 0.00 0.00 70 1017.9
20260904153033 31 15 1.6 4.8 0.00 0.00 0.00 71 1018.0
20260904151530 30 23 0.0 3.2 0.00 0.00 0.00 72 1018.0
20260904150032 29 146 0.0 3.2 0.00 0.00 0.00 76 1018.1
20260904144517 28 352 1.6 3.2 0.00 0.00 0.00 79 1018.0
20260904143017 27 24 0.0 4.8 0.00 0.00 0.00 82 1018.1
20260904141515 26 352 0.0 0.0 0.00 0.00 0.00 85 1018.0
20260904140030 26 15 0.0 3.2 0.00 0.00 0.00 88 1018.0
20260904134531 25 17 0.0 0.0 0.00 0.00 0.00 90 1017.9
20260904133033 24 17 0.0 1.6 0.00 0.00 0.00 93 1017.8
20260904131531 23 352 0.0 0.0 0.00 0.00 0.00 94 1017.7
20260904130023 22 352 0.0 0.0 0.00 0.00 0.00 96 1017.9
20260904124537 22 312 0.0 0.0 0.00 0.00 0.00 97 1017.7
20260904123014 21 312 0.0 1.6 0.00 0.00 0.00 97 1018.0
20260904121533 21 312 0.0 0.0 0.00 0.00 0.00 97 1018.0
20260904120012 21 143 0.0 0.0 0.00 0.00 0.00 96 1018.0
20260904114535 20 143 0.0 0.0 0.00 0.00 0.00 96 1017.8
20260904113032 20 143 0.0 0.0 0.00 0.00 0.00 96 1017.8
20260904111526 20 143 0.0 0.0 0.00 0.00 0.00 96 1017.6
20260904110024 20 143 0.0 0.0 0.00 0.00 0.00 96 1017.5
20260904104532 20 143 0.0 1.6 0.00 0.00 0.00 96 1017.4
20260904103012 20 92 0.0 1.6 0.00 0.00 0.00 96 1017.1
20260904101512 20 56 0.0 0.0 0.00 0.00 0.00 96 1017.2
20260904100030 20 57 0.0 0.0 0.00 0.00 0.00 96 1016.9
20260904094533 21 22 1.6 3.2 0.00 0.00 0.00 95 1016.8
20260904093051 21 171 0.0 0.0 0.00 0.00 0.00 95 1016.7
20260904091523 21 171 0.0 0.0 0.00 0.00 0.00 95 1016.7
20260904090018 21 171 0.0 0.0 0.00 0.00 0.00 95 1016.7
20260904084516 21 171 0.0 0.0 0.00 0.00 0.00 95 1016.8
20260904083012 21 171 0.0 0.0 0.00 0.00 0.00 95 1016.7
20260904081532 21 171 0.0 0.0 0.00 0.00 0.00 95 1016.7
20260904080031 21 171 0.0 0.0 0.00 0.00 0.00 95 1016.7
20260904074527 21 171 0.0 0.0 0.00 0.00 0.00 95 1016.7
20260904073047 21 171 0.0 0.0 0.00 0.00 0.00 95 1016.7
20260904071524 22 171 0.0 0.0 0.00 0.00 0.00 95 1016.8
20260904070017 22 171 0.0 0.0 0.00 0.00 0.00 95 1016.8
20260904064533 22 171 0.0 0.0 0.00 0.00 0.00 95 1017.0
20260904063039 22 171 0.0 0.0 0.00 0.00 0.00 95 1017.2
20260904061533 22 171 0.0 0.0 0.00 0.00 0.00 95 1017.3
20260904060032 22 171 0.0 0.0 0.00 0.00 0.00 95 1017.6
20260904054530 22 171 0.0 0.0 0.00 0.00 0.00 95 1017.5